H1 CPF 2 NER 2023 6 8 9 159 01 glonass135 H2 1600801 9135 41330 2023 6 8 0 0 0 2023 6 11 23 45 0 900 1 1 0 0 0 1 H9 10 0 60103 0.00000 0 8888301.723 -17344220.358 -16434443.982 10 0 60103 900.00000 0 8660757.000 -15189680.954 -18554868.765 10 0 60103 1800.00000 0 8601388.949 -12785789.459 -20314381.940 10 0 60103 2700.00000 0 8739945.403 -10193163.492 -21678885.393 10 0 60103 3600.00000 0 9094813.071 -7478419.145 -22621987.991 10 0 60103 4500.00000 0 9672121.740 -4711601.866 -23125508.201 10 0 60103 5400.00000 0 10465381.070 -1963486.077 -23179815.657 10 0 60103 6300.00000 0 11455664.690 697144.459 -22784006.098 10 0 60103 7200.00000 0 12612333.345 3206123.124 -21945907.325 10 0 60103 8100.00000 0 13894266.263 5506325.758 -20681916.959 10 0 60103 9000.00000 0 15251548.847 7549795.482 -19016675.798 10 0 60103 9900.00000 0 16627545.803 9299480.410 -16982583.568 10 0 60103 10800.00000 0 17961272.913 10730513.825 -14619166.673 10 0 60103 11700.00000 0 19189968.302 11830985.555 -11972310.149 10 0 60103 12600.00000 0 20251755.768 12602174.214 -9093368.606 10 0 60103 13500.00000 0 21088288.932 13058232.502 -6038173.096 10 0 60103 14400.00000 0 21647265.746 13225340.275 -2865952.792 10 0 60103 15300.00000 0 21884708.231 13140362.216 361807.922 10 0 60103 16200.00000 0 21766912.014 12849067.427 3582555.212 10 0 60103 17100.00000 0 21271983.951 12403986.428 6733871.813 10 0 60103 18000.00000 0 20390903.125 11861996.078 9754680.271 10 0 60103 18900.00000 0 19128060.339 11281734.150 12586420.532 10 0 60103 19800.00000 0 17501252.754 10720952.341 15174179.481 10 0 60103 20700.00000 0 15541132.924 10233919.028 17467750.976 10 0 60103 21600.00000 0 13290134.040 9868980.906 19422606.292 10 0 60103 22500.00000 0 10800914.789 9666386.110 21000756.602 10 0 60103 23400.00000 0 8134387.163 9656460.496 22171491.080 10 0 60103 24300.00000 0 5357407.737 9858214.206 22911976.542 10 0 60103 25200.00000 0 2540226.907 10278437.740 23207706.967 10 0 60103 26100.00000 0 -246199.241 10911326.564 23052793.933 10 0 60103 27000.00000 0 -2932923.919 11738651.264 22450091.827 10 0 60103 27900.00000 0 -5455639.624 12730467.534 21411154.601 10 0 60103 28800.00000 0 -7757114.348 13846337.695 19956023.953 10 0 60103 29700.00000 0 -9789333.022 15037013.760 18112851.907 10 0 60103 30600.00000 0 -11515255.126 16246512.490 15917363.996 10 0 60103 31500.00000 0 -12910115.039 17414495.883 13412172.439 10 0 60103 32400.00000 0 -13962210.772 18478857.225 10645951.861 10 0 60103 33300.00000 0 -14673148.012 19378403.551 7672493.076 10 0 60103 34200.00000 0 -15057529.482 20055520.764 4549653.282 10 0 60103 35100.00000 0 -15142103.111 20458707.883 1338223.448 10 0 60103 36000.00000 0 -14964405.724 20544872.161 -1899264.363 10 0 60103 36900.00000 0 -14570960.561 20281286.681 -5099765.391 10 0 60103 37800.00000 0 -14015106.139 19647126.426 -8200961.122 10 0 60103 38700.00000 0 -13354549.784 18634516.765 -11142483.349 10 0 60103 39600.00000 0 -12648750.866 17249049.223 -13867098.228 10 0 60103 40500.00000 0 -11956245.888 15509742.242 -16321826.293 10 0 60103 41400.00000 0 -11332029.760 13448448.274 -18458976.002 10 0 60103 42300.00000 0 -10825104.803 11108732.179 -20237070.378 10 0 60103 43200.00000 0 -10476301.451 8544268.078 -21621648.917 10 0 60103 44100.00000 0 -10316462.613 5816821.995 -22585929.702 10 0 60103 45000.00000 0 -10365067.916 2993904.724 -23111319.668 10 0 60103 45900.00000 0 -10629355.065 146192.762 -23187764.133 10 0 60103 46800.00000 0 -11103974.484 -2655175.611 -22813929.906 10 0 60103 47700.00000 0 -11771190.850 -5341317.208 -21997219.457 10 0 60103 48600.00000 0 -12601622.196 -7848221.851 -20753616.781 10 0 60103 49500.00000 0 -13555484.872 -10119163.783 -19107368.654 10 0 60103 50400.00000 0 -14584291.582 -12106807.929 -17090507.899 10 0 60103 51300.00000 0 -15632930.977 -13774925.111 -14742228.132 10 0 60103 52200.00000 0 -16642041.446 -15099646.714 -12108122.100 10 0 60103 53100.00000 0 -17550579.582 -16070208.309 -9239298.209 10 0 60103 54000.00000 0 -18298475.704 -16689152.984 -6191392.119 10 0 60103 54900.00000 0 -18829265.204 -16971987.477 -3023492.164 10 0 60103 55800.00000 0 -19092585.443 -16946306.856 203000.867 10 0 60103 56700.00000 0 -19046433.477 -16650425.522 3425557.910 10 0 60103 57600.00000 0 -18659089.823 -16131572.772 6581727.176 10 0 60103 58500.00000 0 -17910627.262 -15443729.171 9610338.058 10 0 60103 59400.00000 0 -16793940.944 -14645194.883 12452680.481 10 0 60103 60300.00000 0 -15315255.842 -13795992.160 15053637.283 10 0 60103 61200.00000 0 -13494089.303 -12955211.022 17362748.082 10 0 60103 62100.00000 0 -11362668.936 -12178409.461 19335184.510 10 0 60103 63000.00000 0 -8964828.613 -11515177.172 20932618.350 10 0 60103 63900.00000 0 -6354426.943 -11006965.058 22123966.048 10 0 60103 64800.00000 0 -3593352.290 -10685271.690 22885995.433 10 0 60103 65700.00000 0 -749195.573 -10570263.166 23203782.850 10 0 60103 66600.00000 0 2107314.046 -10669884.856 23071011.618 10 0 60103 67500.00000 0 4905005.484 -10979503.154 22490105.516 10 0 60103 68400.00000 0 7574983.220 -11482093.280 21472193.933 10 0 60103 69300.00000 0 10053253.795 -12148966.418 20036908.374 10 0 60103 70200.00000 0 12283152.576 -12941006.728 18212013.150 10 0 60103 71100.00000 0 14217469.936 -13810367.249 16032876.283 10 0 60103 72000.00000 0 15820188.099 -14702554.003 13541789.829 10 0 60103 72900.00000 0 17067755.925 -15558810.860 10787152.057 10 0 60103 73800.00000 0 17949848.112 -16318704.481 7822526.796 10 0 60103 74700.00000 0 18469576.888 -16922799.690 4705598.244 10 0 60103 75600.00000 0 18643147.518 -17315311.275 1497041.846 10 0 60103 76500.00000 0 18498972.584 -17446618.895 -1740666.057 10 0 60103 77400.00000 0 18076283.208 -17275537.248 -4944475.541 10 0 60103 78300.00000 0 17423296.965 -16771244.063 -8052002.213 10 0 60103 79200.00000 0 16595021.231 -15914782.994 -11002752.706 10 0 60103 80100.00000 0 15650786.268 -14700076.789 -13739311.379 10 0 60103 81000.00000 0 14651613.757 -13134407.077 -16208464.119 10 0 60103 81900.00000 0 13657533.215 -11238339.995 -18362236.684 10 0 60103 82800.00000 0 12724960.581 -9045100.492 -20158827.067 10 0 60103 83700.00000 0 11904250.132 -6599421.496 -21563413.901 10 0 60103 84600.00000 0 11237523.001 -3955916.182 -22548825.692 10 0 60103 85500.00000 0 10756863.435 -1177041.477 -23096058.699 10 0 60104 0.00000 0 10482957.927 1669262.030 -23194634.428 10 0 60104 900.00000 0 10424233.305 4512157.208 -22842790.900 10 0 60104 1800.00000 0 10576529.114 7280613.569 -22047504.971 10 0 60104 2700.00000 0 10923316.320 9906119.956 -20824346.409 10 0 60104 3600.00000 0 11436452.432 12325291.335 -19197166.993 10 0 60104 4500.00000 0 12077440.179 14482264.133 -17197631.301 10 0 60104 5400.00000 0 12799136.194 16330781.818 -14864598.457 10 0 60104 6300.00000 0 13547837.497 17835885.601 -12243366.831 10 0 60104 7200.00000 0 14265657.849 18975141.466 -9384796.184 10 0 60104 8100.00000 0 14893094.096 19739353.999 -6344323.999 10 0 60104 9000.00000 0 15371674.695 20132738.743 -3180894.712 10 0 60104 9900.00000 0 15646579.180 20172547.139 44177.750 10 0 60104 10800.00000 0 15669118.542 19888160.893 3268392.449 10 0 60104 11700.00000 0 15398972.232 19319694.506 6429266.420 10 0 60104 12600.00000 0 14806087.567 18516165.122 9465539.138 10 0 60104 13500.00000 0 13872161.368 17533306.760 12318353.556 10 0 60104 14400.00000 0 12591640.919 16431120.678 14932391.254 10 0 60104 15300.00000 0 10972201.305 15271264.529 17256940.116 10 0 60104 16200.00000 0 9034677.827 14114389.567 19246874.335 10 0 60104 17100.00000 0 6812454.727 13017537.279 20863528.167 10 0 60104 18000.00000 0 4350333.964 12031704.291 22075446.847 10 0 60104 18900.00000 0 1702929.252 11199677.445 22859000.345 10 0 60104 19800.00000 0 -1067349.735 10554229.738 23198848.073 10 0 60104 20700.00000 0 -3892641.025 10116752.927 23088245.306 10 0 60104 21600.00000 0 -6702206.132 9896384.499 22529184.904 10 0 60104 22500.00000 0 -9425132.362 9889666.259 21532370.804 10 0 60104 23400.00000 0 -11993050.317 10080749.595 20117022.844 10 0 60104 24300.00000 0 -14342754.247 10442139.630 18310515.589 10 0 60104 25200.00000 0 -16418616.461 10935947.739 16147856.984 10 0 60104 26100.00000 0 -18174695.049 11515600.303 13671015.956 10 0 60104 27000.00000 0 -19576446.656 12127931.998 10928111.125 10 0 60104 27900.00000 0 -20601972.307 12715575.252 7972475.888 10 0 60104 28800.00000 0 -21242743.700 13219544.446 4861617.935 10 0 60104 29700.00000 0 -21503779.341 13581904.753 1656093.741 10 0 60104 30600.00000 0 -21403263.246 13748411.475 -1581679.389 10 0 60104 31500.00000 0 -20971622.701 13671006.716 -4788649.485 10 0 60104 32400.00000 0 -20250104.817 13310066.159 -7902369.171 10 0 60104 33300.00000 0 -19288913.038 12636299.333 -10862222.559 10 0 60104 34200.00000 0 -18144983.627 11632221.674 -13610614.551 10 0 60104 35100.00000 0 -16879497.359 10293135.056 -16094098.378 10 0 60104 36000.00000 0 -15555232.740 8627574.628 -18264418.723 10 0 60104 36900.00000 0 -14233873.438 6657202.583 -20079449.782 10 0 60104 37800.00000 0 -12973384.075 4416153.066 -21504010.138 10 0 60104 38700.00000 0 -11825565.048 1949855.538 -22510539.135 10 0 60104 39600.00000 0 -10833889.017 -686614.180 -23079622.384 10 0 60104 40500.00000 0 -10031709.186 -3430586.381 -23200357.227 10 0 60104 41400.00000 0 -9440913.536 -6214168.099 -22870552.180 10 0 60104 42300.00000 0 -9071080.062 -8966833.506 -22096757.546 10 0 60104 43200.00000 0 -8919166.957 -11618126.967 -20894127.539 10 0 60104 44100.00000 0 -8969749.158 -14100367.238 -19286117.328 10 0 60104 45000.00000 0 -9195789.956 -16351241.464 -17304021.371 10 0 60104 45900.00000 0 -9559914.048 -18316182.384 -14986362.207 10 0 60104 46800.00000 0 -10016127.661 -19950431.284 -12378141.576 10 0 60104 47700.00000 0 -10511912.807 -21220702.188 -9529968.239 10 0 60104 48600.00000 0 -10990607.250 -22106379.374 -6497079.117 10 0 60104 49500.00000 0 -11393969.903 -22600199.591 -3338272.355 10 0 60104 50400.00000 0 -11664823.653 -22708391.631 -114772.666 10 0 60104 51300.00000 0 -11749664.416 -22450268.459 3110949.463 10 0 60104 52200.00000 0 -11601126.585 -21857289.700 6276382.175 10 0 60104 53100.00000 0 -11180201.004 -20971634.308 9320177.291 10 0 60104 54000.00000 0 -10458111.875 -19844343.460 12183333.004 10 0 60104 54900.00000 0 -9417773.127 -18533111.552 14810331.791 10 0 60104 55800.00000 0 -8054762.256 -17099817.677 17150211.849 10 0 60104 56700.00000 0 -6377769.590 -15607900.681 19157551.809 10 0 60104 57600.00000 0 -4408502.646 -14119687.263 20793350.073 10 0 60104 58500.00000 0 -2181047.803 -12693784.536 22025782.071 10 0 60104 59400.00000 0 259286.066 -11382645.747 22830821.027 10 0 60104 60300.00000 0 2857595.904 -10230410.654 23192710.205 10 0 60104 61200.00000 0 5551418.956 -9271110.826 23104277.299 10 0 60104 62100.00000 0 8273090.723 -8527314.980 22567084.380 10 0 60104 63000.00000 0 10952329.977 -8009271.317 21591409.744 10 0 60104 63900.00000 0 13518944.585 -7714583.201 20196061.060 10 0 60104 64800.00000 0 15905546.421 -7628432.298 18408022.305 10 0 60104 65700.00000 0 18050162.760 -7724340.259 16261940.198 10 0 60104 66600.00000 0 19898635.224 -7965437.379 13799459.010 10 0 60104 67500.00000 0 21406705.828 -8306184.938 11068415.837 10 0 60104 68400.00000 0 22541702.371 -8694478.510 8121911.387 10 0 60104 69300.00000 0 23283751.944 -9074042.943 5017274.226 10 0 60104 70200.00000 0 23626471.171 -9387016.888 1814938.941 10 0 60104 71100.00000 0 23577103.901 -9576616.354 -1422739.340 10 0 60104 72000.00000 0 23156100.629 -9589763.050 -4632709.854 10 0 60104 72900.00000 0 22396157.792 -9379564.601 -7752465.484 10 0 60104 73800.00000 0 21340758.245 -8907540.022 -10721270.928 10 0 60104 74700.00000 0 20042275.527 -8145494.748 -13481354.528 10 0 60104 75600.00000 0 18559723.112 -7076964.653 -15979039.487 10 0 60104 76500.00000 0 16956244.753 -5698167.057 -18165791.743 10 0 60104 77400.00000 0 15296452.727 -4018417.898 -19999163.710 10 0 60104 78300.00000 0 13643726.816 -2059997.065 -21443615.645 10 0 60104 79200.00000 0 12057587.914 142532.714 -22471199.143 10 0 60104 80100.00000 0 10591256.500 2543525.009 -23062090.261 10 0 60104 81000.00000 0 9289497.766 5087916.758 -23204962.957 10 0 60104 81900.00000 0 8186842.674 7713293.870 -22897196.690 10 0 60104 82800.00000 0 7306258.041 10352269.455 -22144915.240 10 0 60104 83700.00000 0 6658319.635 12935076.165 -20962856.963 10 0 60104 84600.00000 0 6240921.131 15392265.420 -19374079.729 10 0 60104 85500.00000 0 6039529.322 17657402.101 -17409506.787 10 0 60105 0.00000 0 6027973.255 19669643.446 -15107322.816 10 0 60105 900.00000 0 6169732.810 21376097.051 -12512230.611 10 0 60105 1800.00000 0 6419671.502 22733858.307 -9674585.814 10 0 60105 2700.00000 0 6726139.858 23711647.143 -6649422.093 10 0 60105 3600.00000 0 7033360.480 24290974.197 -3495388.289 10 0 60105 4500.00000 0 7283994.057 24466789.825 -273616.628 10 0 60105 5400.00000 0 7421778.198 24247589.504 2953456.274 10 0 60105 6300.00000 0 7394127.862 23654971.854 6123293.140 10 0 60105 7200.00000 0 7154587.808 22722668.221 9174461.540 10 0 60105 8100.00000 0 6665033.571 21495084.603 12047818.166 10 0 60105 9000.00000 0 5897527.987 20025416.941 14687649.424 10 0 60105 9900.00000 0 4835754.502 18373418.391 17042746.593 10 0 60105 10800.00000 0 3475966.121 16602911.577 19067395.217 10 0 60105 11700.00000 0 1827408.808 14779149.289 20722259.996 10 0 60105 12600.00000 0 -87800.001 12966133.367 21975148.370 10 0 60105 13500.00000 0 -2235334.647 11224003.158 22801638.242 10 0 60105 14400.00000 0 -4569840.689 9606602.077 23185557.752 10 0 60105 15300.00000 0 -7036583.455 8159323.528 23119307.554 10 0 60105 16200.00000 0 -9573499.132 6917325.875 22604018.950 10 0 60105 17100.00000 0 -12113564.846 5904191.023 21649544.045 10 0 60105 18000.00000 0 -14587390.540 5131082.794 20274277.173 10 0 60105 18900.00000 0 -16925925.806 4596440.579 18504809.964 10 0 60105 19800.00000 0 -19063169.502 4286221.326 16375425.552 10 0 60105 20700.00000 0 -20938769.200 4174679.960 13927440.701 10 0 60105 21600.00000 0 -22500401.638 4225655.451 11208407.712 10 0 60105 22500.00000 0 -23705833.984 4394308.165 8271191.036 10 0 60105 23400.00000 0 -24524578.762 4629234.717 5172936.408 10 0 60105 24300.00000 0 -24939072.238 4874870.121 1973952.767 10 0 60105 25200.00000 0 -24945326.095 5074074.460 -1263470.610 10 0 60105 26100.00000 0 -24553024.612 5170793.137 -4476287.700 10 0 60105 27000.00000 0 -23785063.261 5112676.395 -7601934.966 10 0 60105 27900.00000 0 -22676548.528 4853545.500 -10579560.761 10 0 60105 28800.00000 0 -21273301.850 4355599.555 -13351219.632 10 0 60105 29700.00000 0 -19629931.696 3591268.125 -15863007.159 10 0 60105 30600.00000 0 -17807556.066 2544630.265 -18066112.525 10 0 60105 31500.00000 0 -15871272.341 1212339.150 -19917767.881 10 0 60105 32400.00000 0 -13887481.652 -395987.173 -21382076.153 10 0 60105 33300.00000 0 -11921180.643 -2257925.701 -22430701.646 10 0 60105 34200.00000 0 -10033334.247 -4338952.482 -23043410.804 10 0 60105 35100.00000 0 -8278439.095 -6593661.299 -23208453.633 10 0 60105 36000.00000 0 -6702378.580 -8967446.177 -22922779.515 10 0 60105 36900.00000 0 -5340657.928 -11398577.591 -22192084.298 10 0 60105 37800.00000 0 -4217091.350 -13820586.129 -21030688.734 10 0 60105 38700.00000 0 -3342994.213 -16164854.779 -19461251.373 10 0 60105 39600.00000 0 -2716912.035 -18363312.502 -17514322.015 10 0 60105 40500.00000 0 -2324895.682 -20351117.745 -15227744.644 10 0 60105 41400.00000 0 -2141309.465 -22069221.072 -12645921.447 10 0 60105 42300.00000 0 -2130136.747 -23466701.034 -9818952.042 10 0 60105 43200.00000 0 -2246727.048 -24502776.917 -6801664.340 10 0 60105 44100.00000 0 -2439910.342 -25148415.254 -3652555.436 10 0 60105 45000.00000 0 -2654389.029 -25387463.852 -432662.722 10 0 60105 45900.00000 0 -2833306.539 -25217266.578 2795613.303 10 0 60105 46800.00000 0 -2920884.199 -24648733.711 5969712.096 10 0 60105 47700.00000 0 -2865015.173 -23705865.179 9028119.021 10 0 60105 48600.00000 0 -2619706.059 -22424746.702 11911551.233 10 0 60105 49500.00000 0 -2147263.099 -20852060.651 14564100.922 10 0 60105 50400.00000 0 -1420130.531 -19043173.573 16934314.174 10 0 60105 51300.00000 0 -422303.059 -17059879.738 18976185.009 10 0 60105 52200.00000 0 849747.930 -14967894.273 20650045.798 10 0 60105 53100.00000 0 2386674.665 -12834199.806 21923337.127 10 0 60105 54000.00000 0 4166398.255 -10724356.472 22771242.479 10 0 60105 54900.00000 0 6154794.847 -8699886.752 23177175.488 10 0 60105 55800.00000 0 8306896.096 -6815843.520 23133110.138 10 0 60105 56700.00000 0 10568555.989 -5118662.229 22639747.062 10 0 60105 57600.00000 0 12878516.498 -3644386.488 21706512.020 10 0 60105 58500.00000 0 15170787.615 -2417340.995 20351385.619 10 0 60105 59400.00000 0 17377243.833 -1449307.273 18600566.483 10 0 60105 60300.00000 0 19430329.569 -739236.760 16487973.252 10 0 60105 61200.00000 0 21265760.838 -273513.391 14054593.969 10 0 60105 62100.00000 0 22825110.061 -26754.572 11347694.611 10 0 60105 63000.00000 0 24058165.211 36883.345 8419901.513 10 0 60105 63900.00000 0 24924963.522 -38049.376 5328175.364 10 0 60105 64800.00000 0 25397413.381 -200424.412 2132696.931 10 0 60105 65700.00000 0 25460435.316 -394946.914 -1104313.163 10 0 60105 66600.00000 0 25112573.264 -564746.601 -4319816.613 10 0 60105 67500.00000 0 24366049.978 -654037.061 -7451196.508 10 0 60105 68400.00000 0 23246264.150 -610728.932 -10437487.862 10 0 60105 69300.00000 0 21790750.770 -388884.634 -13220574.282 10 0 60105 70200.00000 0 20047649.123 49090.761 -15746326.371 10 0 60105 71100.00000 0 18073743.770 730616.432 -17965658.939 10 0 60105 72000.00000 0 15932161.798 1671538.860 -19835485.997 10 0 60105 72900.00000 0 13689823.864 2875230.586 -21319555.011 10 0 60105 73800.00000 0 11414756.525 4332222.986 -22389144.623 10 0 60105 74700.00000 0 9173378.626 6020388.611 -23023613.040 10 0 60105 75600.00000 0 7027875.042 7905665.464 -23210787.441 10 0 60105 76500.00000 0 5033766.731 9943292.846 -22947187.963 10 0 60105 77400.00000 0 3237777.410 12079507.078 -22238083.030 10 0 60105 78300.00000 0 1676084.245 14253626.403 -21097375.931 10 0 60105 79200.00000 0 373023.644 16400438.340 -19547325.633 10 0 60105 80100.00000 0 -659695.875 18452790.339 -17618107.805 10 0 60105 81000.00000 0 -1423243.001 20344276.297 -15347224.839 10 0 60105 81900.00000 0 -1931366.735 22011907.622 -12778776.333 10 0 60105 82800.00000 0 -2209567.524 23398658.156 -9962604.079 10 0 60105 83700.00000 0 -2293772.729 24455777.538 -6953327.829 10 0 60105 84600.00000 0 -2228573.251 25144777.134 -3809290.173 10 0 60105 85500.00000 0 -2065096.299 25439006.162 -591430.609 10 0 60106 0.00000 0 -1858604.427 25324752.653 2637889.468 10 0 60106 900.00000 0 -1665922.134 24801823.390 5816090.212 10 0 60106 1800.00000 0 -1542798.910 23883578.917 8881577.922 10 0 60106 2700.00000 0 -1541319.530 22596421.875 11774933.568 10 0 60106 3600.00000 0 -1707471.098 20978759.792 14440058.349 10 0 60106 4500.00000 0 -2078969.426 19079485.188 16825256.194 10 0 60106 5400.00000 0 -2683436.662 16956035.768 18884232.407 10 0 60106 6300.00000 0 -3537007.520 14672114.799 20576989.574 10 0 60106 7200.00000 0 -4643423.728 12295165.823 21870603.674 10 0 60106 8100.00000 0 -5993656.028 9893705.936 22739865.678 10 0 60106 9000.00000 0 -7566071.327 7534627.765 23167776.250 10 0 60106 9900.00000 0 -9327139.878 5280581.616 23145883.780 10 0 60106 10800.00000 0 -11232654.975 3187546.085 22674458.818 10 0 60106 11700.00000 0 -13229416.207 1302687.760 21762500.793 10 0 60106 12600.00000 0 -15257307.736 -337401.102 20427575.983 10 0 60106 13500.00000 0 -17251686.259 -1708013.586 18695488.776 10 0 60106 14400.00000 0 -19145979.942 -2797133.107 16599791.445 10 0 60106 15300.00000 0 -20874390.081 -3605698.701 14181140.859 10 0 60106 16200.00000 0 -22374582.454 -4147319.568 11486513.691 10 0 60106 17100.00000 0 -23590255.061 -4447451.083 8568294.763 10 0 60106 18000.00000 0 -24473473.619 -4542067.396 5483256.018 10 0 60106 18900.00000 0 -24986675.612 -4475887.338 2291446.170 10 0 60106 19800.00000 0 -25104257.399 -4300229.595 -944986.766 10 0 60106 20700.00000 0 -24813676.487 -4070589.195 -4163016.121 10 0 60106 21600.00000 0 -24116021.678 -3844039.417 -7299975.418 10 0 60106 22500.00000 0 -23026026.556 -3676570.851 -10294789.956 10 0 60106 23400.00000 0 -21571525.625 -3620481.949 -13089175.768 10 0 60106 24300.00000 0 -19792376.226 -3721933.124 -15628781.506 10 0 60106 25200.00000 0 -17738892.119 -4018769.174 -17864250.221 10 0 60106 26100.00000 0 -15469855.283 -4538703.083 -19752179.885 10 0 60106 27000.00000 0 -13050190.086 -5297938.525 -21255964.012 10 0 60106 27900.00000 0 -10548397.851 -6300289.479 -22346496.451 10 0 60106 28800.00000 0 -8033859.518 -7536834.057 -23002727.381 10 0 60106 29700.00000 0 -5574118.998 -8986116.981 -23212060.715 10 0 60106 30600.00000 0 -3232260.054 -10614892.037 -22970586.332 10 0 60106 31500.00000 0 -1064485.124 -12379373.159 -22283143.704 10 0 60106 32400.00000 0 882004.450 -14226941.728 -21163216.713 10 0 60106 33300.00000 0 2570740.271 -16098238.730 -19632662.477 10 0 60106 34200.00000 0 3977260.590 -17929554.537 -17721280.014 10 0 60106 35100.00000 0 5089874.949 -19655416.868 -15466227.420 10 0 60106 36000.00000 0 5909889.937 -21211269.317 -12911298.889 10 0 60106 36900.00000 0 6451288.651 -22536129.116 -10106075.505 10 0 60106 37800.00000 0 6739879.068 -23575113.678 -7104965.974 10 0 60106 38700.00000 0 6811948.507 -24281730.851 -3966155.528 10 0 60106 39600.00000 0 6712481.839 -24619837.573 -750483.006 10 0 60106 40500.00000 0 6493019.151 -24565185.317 2479732.509 10 0 60106 41400.00000 0 6209243.541 -24106487.853 5661893.194 10 0 60106 42300.00000 0 5918400.860 -23245966.577 8734329.144 10 0 60106 43200.00000 0 5676660.232 -21999350.371 11637487.220 10 0 60106 44100.00000 0 5536526.541 -20395329.531 14315079.472 10 0 60106 45000.00000 0 5544413.957 -18474485.894 16715169.254 10 0 60106 45900.00000 0 5738482.794 -16287742.995 18791174.463 10 0 60106 46800.00000 0 6146831.108 -13894399.839 20502768.912 10 0 60106 47700.00000 0 6786117.721 -11359829.140 21816664.692 10 0 60106 48600.00000 0 7660675.457 -8752934.684 22707260.693 10 0 60106 49500.00000 0 8762153.141 -6143472.415 23157144.743 10 0 60106 50400.00000 0 10069702.933 -3599345.655 23157439.532 10 0 60106 51300.00000 0 11550706.944 -1183985.968 22707985.181 10 0 60106 52200.00000 0 13162014.588 1046072.132 21817354.251 10 0 60106 53100.00000 0 14851640.644 3043322.152 20502697.970 10 0 60106 54000.00000 0 16560854.533 4771033.867 18789425.610 10 0 60106 54900.00000 0 18226574.512 6204546.027 16710722.028 10 0 60106 55800.00000 0 19783967.221 7332049.571 14306911.677 10 0 60106 56700.00000 0 21169143.751 8154828.627 11624680.487 10 0 60106 57600.00000 0 22321838.795 8686949.332 8716170.088 10 0 60106 58500.00000 0 23187959.494 8954409.900 5637961.747 10 0 60106 59400.00000 0 23721895.665 8993788.357 2449969.947 10 0 60106 60300.00000 0 23888492.852 8850445.883 -785732.290 10 0 60106 61200.00000 0 23664603.746 8576362.909 -4006132.485 10 0 60106 62100.00000 0 23040151.371 8227700.928 -7148517.227 10 0 60106 63000.00000 0 22018658.362 7862194.846 -10151704.710 10 0 60106 63900.00000 0 20617219.397 7536487.943 -12957245.912 10 0 60106 64800.00000 0 18865917.825 7303523.803 -15510569.897 10 0 60106 65700.00000 0 16806711.131 7210106.956 -17762050.116 10 0 60106 66600.00000 0 14491832.506 7294736.368 -19667970.461 10 0 60106 67500.00000 0 11981776.092 7585803.998 -21191372.268 10 0 60106 68400.00000 0 9342950.786 8100234.681 -22302766.192 10 0 60106 69300.00000 0 6645101.089 8842624.647 -22980695.813 10 0 60106 70200.00000 0 3958602.706 9804914.609 -23212143.026 10 0 60106 71100.00000 0 1351745.310 10966610.774 -22992768.465 10 0 60106 72000.00000 0 -1111885.049 12295544.010 -22326983.386 10 0 60106 72900.00000 0 -3375816.176 13749134.969 -21227852.662 10 0 60106 73800.00000 0 -5392793.840 15276111.911 -19716831.568 10 0 60106 74700.00000 0 -7126494.046 16818609.221 -17823342.066 10 0 60106 75600.00000 0 -8552774.202 18314558.894 -15584197.117 10 0 60106 76500.00000 0 -9660413.171 19700275.205 -13042884.259 10 0 60106 77400.00000 0 -10451311.346 20913124.754 -10248722.217 10 0 60106 78300.00000 0 -10940144.304 21894170.564 -7255906.641 10 0 60106 79200.00000 0 -11153486.207 22590680.000 -4122463.075 10 0 60106 80100.00000 0 -11128441.045 22958391.793 -909127.096 10 0 60106 81000.00000 0 -10910840.200 22963447.487 2321827.077 10 0 60106 81900.00000 0 -10553082.798 22583906.452 5507787.216 10 0 60106 82800.00000 0 -10111710.115 21810780.887 8587010.037 10 0 60106 83700.00000 0 -9644816.280 20648547.113 11499811.457 10 0 60106 84600.00000 0 -9209404.334 19115111.176 14189717.530 10 0 60106 85500.00000 0 -8858798.879 17241229.367 16604554.123 99